Location: Banksville Park
(38.5557°N, 75.1182°W)
Time: 17:43:03
(UTC+00:00)

SAR-Lupe-1 - Pass Details

Date: 25 January 2021
Orbit: 482 x 484 km, 98.2° (Epoch: 02 March)

Event Time Altitude Azimuth Distance (km) Brightness Sun altitude
Rises 09:52:29 0° 133° (SE) 2,537 8.4 -27.1°
Reaches altitude 10° 09:54:56 10° 115° (ESE) 1,661 7.6 -26.6°
Maximum altitude 09:57:32 19° 69° (ENE) 1,200 6.7 -26.1°
Drops below altitude 10° 10:00:08 10° 22° (NNE) 1,670 7.0 -25.6°
Enters shadow 10:00:48 - 15° (NNE) 1,890 7.2 -25.5°
